831  
ASUS46 KLOX 201613  
RWRCA  
 
SOUTHERN CALIFORNIA WEATHER ROUNDUP  
NATIONAL WEATHER SERVICE OXNARD CALIFORNIA  
900 AM PDT THU JUN 20 2024  
 
NOTE: "FAIR" INDICATES FEW OR NO CLOUDS BELOW 12,000 FEET WITH NO  
SIGNIFICANT WEATHER AND/OR S TO VISIBILITY
.  
 
- STATIONS PRECEEDED BY AN ASTERISK (*) ARE NOT NWS OR FAA  
STATIONS AND ARE NOT SUBJECT TO NWS AND FAA QUALITY CONTROL.
 
 
CAZ041-042-087-201700-  
LA AND ORANGE COUNTY COASTAL AREAS  
 
 
CITY SKY/WX TMP DP RH WIND PRES REMARKS
 
L.A. DOWNTOWN N/A 68 57 68 SE3 N/A  
L.A. AIRPORT PTSUNNY 67 59 75 S3 29.83S  
LONG BEACH CLOUDY 69 59 70 VRB3 29.83S  
 
CITY SKY/WX TMP DP RH WIND PRES REMARKS
 
FULLERTON CLOUDY 68 59 73 CALM 29.82S  
HAWTHORNE PTSUNNY 67 57 70 VRB3 29.84R  
*LEO CARRILLO N/A 67 60 77 SE3 N/A  
*LOS ALAMITOS CLOUDY 67 59 74 SW3 29.80S  
SANTA ANA CLOUDY 67 57 70 CALM 29.83S  
STA MONICA APT N/A N/A N/A N/A MISG N/A  
TORRANCE PTSUNNY 66 57 72 CALM 29.84R HAZE  
 

 
 
CAZ547-548-048-201700-  
LA COUNTY VALLEYS AND INLAND EMPIRE  
 
 
CITY SKY/WX TMP DP RH WIND PRES REMARKS
 
BURBANK SUNNY 65 57 75 VRB7 29.83S  
VAN NUYS SUNNY 68 57 68 S3 29.82S  
 
CITY SKY/WX TMP DP RH WIND PRES REMARKS
 
CORONA AIRPORT MOSUNNY 68 61 78 NW5 29.84S  
CHINO CLOUDY 67 59 75 W5 29.85S HAZE  
*CLAREMONT N/A 68 58 70 CALM N/A  
*NORTHRIDGE N/A 70 55 60 E1 N/A  
ONTARIO SUNNY 66 55 67 SW5 29.83S HAZE  
POMONA SUNNY 66 57 72 CALM 29.85S HAZE  
RIVERSIDE MOSUNNY 66 59 78 SW5 29.83F HAZE  
SAN BERNARDINO SUNNY 70 55 60 CALM 29.84R HAZE  
*SAN RAFAEL HI N/A 68 60 74 S2 N/A  
*SAUGUS N/A 69 56 62 SW2 N/A  
*WHITEMAN AP SUNNY 66 57 72 CALM 29.85S  
*WHITTIER HILL N/A 60 60 100 CALM N/A  
*WOODLAND HILL N/A 41 27 56 CALM N/A  
 

 
 
CAZ054-055-201700-  
LA AND SAN BERNARDINO COUNTY MOUNTAINS  
 
 
CITY SKY/WX TMP DP RH WIND PRES REMARKS
 
*ACTON N/A 76 43 30 CALM N/A  
*BIG BEAR AIRP SUNNY 64 32 29 CALM 30.09S  
*BIG PINES N/A 67 35 29 CALM N/A  
*CHILAO N/A 70 34 26 S5 N/A  
SANDBERG SUNNY 68 29 23 NW15 29.96R  
*WARM SPRINGS N/A 71 34 26 CALM N/A  
 

 
 
CAZ028-029-059-060-099-201700-  
ANTELOPE VALLEY AND SURROUNDING AREAS  
 
 
CITY SKY/WX TMP DP RH WIND PRES REMARKS
 
LANCASTER SUNNY 79 31 17 W6 29.85S  
PALMDALE SUNNY 79 32 18 VRB3 29.86S  
*POPPY PARK N/A 80 31 17 W3G15 N/A  
 
CITY SKY/WX TMP DP RH WIND PRES REMARKS
 
29 PALMS SUNNY 84 34 16 NW6 29.88S  
BARSTOW/DAGGET N/A 81 34 18 NW14 29.82S  
BISHOP MOSUNNY 75 29 18 CALM 29.93F  
CHINA LAKE SUNNY 77 35 21 CALM 29.83R  
EDWARDS AFB SUNNY 77 29 17 SW7 29.83  
MOJAVE SUNNY 77 28 16 CALM 29.87  
NEEDLES SUNNY 91 38 15 E5 29.74S  
VICTORVILLE SUNNY 75 36 23 CALM 29.91S  
 

 
 
CAZ039-040-201700-  
VENTURA AND SANTA BARBARA COUNTY COAST  
 
 
CITY SKY/WX TMP DP RH WIND PRES REMARKS
 
CAMARILLO SUNNY 69 57 65 SW6 29.84R  
OXNARD AIRPORT MOSUNNY 65 57 75 SW8 29.84R HAZE  
*POINT MUGU MOSUNNY 65 58 78 SW7 29.85R  
SBA APT/GOLETA SUNNY 65 58 78 SE7 29.82S  
 

 
 
CAZ044-045-201700-  
VENTURA COUNTY VALLEYS  
 
 
CITY SKY/WX TMP DP RH WIND PRES REMARKS
 
*SIMI VALLEY N/A 67 59 74 W1 29.77S  
*N 1000 OAKS N/A 65 60 82 NW3 29.84S  
*TO CIVIC ARTS N/A 75 66 73 MISG N/A  
*FILLMORE N/A 69 61 75 CALM 29.88R  
 

 
 
CAZ053-201700-  
VENTURA COUNTY MOUNTAINS  
 
 
CITY SKY/WX TMP DP RH WIND PRES REMARKS
 
*LOCKWOOD VLY N/A 68 32 26 MISG N/A  
*ROSE VALLEY N/A 73 39 29 MISG N/A  
 

 
 
CAZ034-035-036-201700-  
CENTRAL COAST AND SANTA YNEZ VALLEY  
 
 
CITY SKY/WX TMP DP RH WIND PRES REMARKS
 
SAN LUIS OBISP MOSUNNY 59 48 67 NW16 29.89S  
SANTA MARIA CLOUDY 54 50 86 NW9 29.90S  
 
CITY SKY/WX TMP DP RH WIND PRES REMARKS
 
*CAL POLY SLO N/A 54 54 100 CALM N/A  
*LOMPOC CLOUDY 55 52 88 W12 29.91S  
*PISMO BEACH N/A 54 49 84 SE3 29.90S  
*SANTA YNEZ CLOUDY 52 50 93 W6 29.89S  
 

 
 
CAZ037-038-051-201700-  
SAN LUIS OBISPO COUNTY INTERIOR AND CUYAMA VALLEY  
 
 
CITY SKY/WX TMP DP RH WIND PRES REMARKS
 
PASO ROBLES SUNNY 56 47 71 W7 29.89S  
 

 
 
CAZ032-033-061-201700-  
SOUTHERN DESERTS  
 
 
CITY SKY/WX TMP DP RH WIND PRES REMARKS
 
BLYTHE SUNNY 90 45 21 NE6 29.70S  
IMPERIAL SUNNY 89 51 27 NW7 29.67R  
PALM SPRINGS SUNNY 90 50 25 W3 29.71S  
THERMAL SUNNY 89 53 29 NW7 29.67R  
 

 
 
ELSEWHERE ACROSS THE WESTERN UNITED STATES AND MEXICO  
 
 
CITY SKY/WX TMP DP RH WIND PRES REMARKS
 
DEATH VALLEY, N/A 96 39 13 SW3 N/A HX 91  
DENVER, CO MOSUNNY 81 50 33 SW24G33 30.16F  
GRAND CANYON, SUNNY 77 32 19 SW13G24 30.15F  
HONOLULU, HI PTCLDY 73 66 78 E16 30.07R  
KAHULUI, MAUI PTCLDY 73 66 78 NE15G28 30.04R  
LAKE TAHOE, CA SUNNY 60 40 47 CALM 30.07S  
LAS VEGAS, NV SUNNY 88 31 13 CALM 29.83S  
MAMMOTH LAKES, SUNNY 63 29 27 CALM 30.12S  
MEXICO CITY, M CLOUDY 70 55 60 E5 30.07  
PHOENIX, AZ SUNNY 94 38 14 CALM 29.71S  
PORTLAND, OR MOSUNNY 67 50 54 NW6 29.97S  
RENO, NV MOSUNNY 69 37 30 CALM 30.00S  
SALT LAKE CITY PTSUNNY 74 36 25 CALM 30.01S  
SAN DIEGO, CA PTSUNNY 67 59 75 SW3 29.85R  
SAN FRANCISCO, PTSUNNY 54 48 80 W8 29.91S  
SAN JOSE, CA CLOUDY 62 48 60 CALM 29.90S  
SEATTLE, WA MOSUNNY 66 48 52 N9 30.02S  
TIJUANA, MEX NOT AVBL  
 

 
 
STATION/POSITION TIME TEMP WIND PRES VSBY WAVE
 
AIR SEA DIR/SP/G HT/PER  
(UTC) (F) (DEG/KT/KT) (MB) (MI) (FT/S)  
WEST SANTA BARBA 1550 53 57 320/ 25/ 31 1010.4R 6/ 6  
EAST SANTA BARBA 1550 58 59 270/ 8/ 8 1009.0R 4/ 6  
SANTA MONICA BAY 1550 63 290/ 2/ 4 1010.9R 4/ 6  
SAN CLEMENTE BAS 1550 62 65 10/ 2/ 6 1009.7R 4/ 7  
 
CLICK HERE TO GO TO PREVIOUS BULLETINS.

The Nexlab CA Page Main Text Page